Weather History for Taylorville, IL

Change the Weather History Date:

Tuesday, February 25, 2014

  Actual Average (KSPI) Record (KSPI)
Temperature  
Mean Temperature 20 °F 35 °F  
Max Temperature 26 °F 44 °F 72 °F (2000)
Min Temperature 14 °F 26 °F -4 °F (1963)
Degree Days  
Heating Degree Days 45 30  
Month to date heating degree days 857  
Since 1 July heating degree days 4183  
Cooling Degree Days 0 0  
Month to date cooling degree days 0  
Year to date cooling degree days 0  
Moisture  
Dew Point 15 °F    
Average Humidity 75    
Maximum Humidity 93    
Minimum Humidity 54    
Precipitation  
Precipitation 0.00 in 0.07 in 1.57 in (1899)
Month to date precipitation 1.58  
Year to date precipitation 3.40  
Snow  
Snow 0.00 in 0.10 in 6.60 in (1993)
Month to date snowfall 5.0  
Since 1 July snowfall 17.6  
Snow Depth -    
Sea Level Pressure  
Sea Level Pressure 30.27 in    
Wind  
Wind Speed 11 mph (NNW)    
Max Wind Speed 18 mph    
Max Gust Speed 25 mph    
Visibility 10 miles    
Events Snow    
T = Trace of Precipitation, MM = Missing Value Source: NWS Daily Summary

Daily Weather History Graph

Daily Weather History Graph

Search for Another Location

Airport:

Trip Planner

Search our weather history database for the weather conditions in past years. The results will help you decide how hot, cold, wet, or windy it might be!

Date:

Astronomy

Feb. 25, 2014 Rise Set
Actual Time 6:36 AM CST 5:45 PM CST
Civil Twilight 6:08 AM CST 6:12 PM CST
Nautical Twilight 5:37 AM CST 6:43 PM CST
Astronomical Twilight 5:06 AM CST 7:14 PM CST
Moon 3:30 AM CST (2/25) 1:51 PM CST (2/25)
Length of Visible Light 12h 03m
Length of Day
11h 09m
Waning Crescent, 18% of the Moon is Illuminated
Feb 25
Waning Crescent
Mar 1
New
Mar 8
First Quarter
Mar 16
Full
Mar 23
Last Quarter

Hourly Weather History & Observations

Time (CST) Temp. Windchill Dew Point Humidity Pressure Visibility Wind Dir Wind Speed Gust Speed Precip Events Conditions
12:15 AM 26.6 °F 18.2 °F 19.4 °F 74% 30.24 in 10.0 mi NNW 8.1 mph - N/A   Overcast
12:35 AM 26.6 °F 17.5 °F 17.6 °F 69% 30.25 in 10.0 mi NNW 9.2 mph - N/A   Overcast
12:55 AM 26.6 °F 18.2 °F 17.6 °F 69% 30.23 in 10.0 mi North 8.1 mph - N/A   Overcast
1:15 AM 24.8 °F 14.0 °F 17.6 °F 74% 30.25 in 10.0 mi North 11.5 mph - N/A   Overcast
1:30 AM 24.8 °F 14.0 °F 19.4 °F 80% 30.25 in 10.0 mi North 11.5 mph - N/A   Overcast
1:55 AM 23.0 °F 10.6 °F 19.4 °F 86% 30.26 in 7.0 mi North 13.8 mph - N/A   Overcast
2:15 AM 23.0 °F 10.1 °F 21.2 °F 93% 30.26 in 5.0 mi North 15.0 mph - N/A Snow Light Snow
3:55 AM 21.2 °F 10.1 °F 19.4 °F 93% 30.25 in 10.0 mi North 10.4 mph - N/A   Overcast
4:15 AM 21.2 °F 10.1 °F 19.4 °F 93% 30.25 in 10.0 mi North 10.4 mph - N/A   Overcast
4:35 AM 21.2 °F 11.7 °F 19.4 °F 93% 30.25 in 10.0 mi North 8.1 mph - N/A Snow Light Snow
4:55 AM 21.2 °F 8.9 °F 19.4 °F 93% 30.25 in 10.0 mi North 12.7 mph - N/A Snow Light Snow
5:15 AM 21.2 °F 10.9 °F 17.6 °F 86% 30.26 in 10.0 mi North 9.2 mph - N/A   Overcast
5:35 AM 21.2 °F 11.7 °F 17.6 °F 86% 30.26 in 10.0 mi NNW 8.1 mph - N/A   Overcast
5:55 AM 21.2 °F 10.1 °F 17.6 °F 86% 30.26 in 10.0 mi NNW 10.4 mph - N/A Snow Light Snow
6:15 AM 21.2 °F 9.5 °F 17.6 °F 86% 30.27 in 10.0 mi NNW 11.5 mph - N/A Snow Light Snow
6:35 AM 19.4 °F 8.6 °F 17.6 °F 93% 30.27 in 10.0 mi NNW 9.2 mph - N/A   Overcast
6:55 AM 19.4 °F 9.5 °F 15.8 °F 86% 30.27 in 10.0 mi North 8.1 mph - N/A   Mostly Cloudy
7:15 AM 19.4 °F 10.4 °F 15.8 °F 86% 30.27 in 10.0 mi NNW 6.9 mph - N/A   Mostly Cloudy
7:35 AM 19.4 °F 6.6 °F 15.8 °F 86% 30.28 in 10.0 mi North 12.7 mph - N/A   Overcast
8:00 AM 19.4 °F 8.6 °F 15.8 °F 86% 30.29 in 10.0 mi NNW 9.2 mph - N/A   Overcast
8:15 AM 19.4 °F 7.9 °F 15.8 °F 86% 30.30 in 10.0 mi North 10.4 mph - N/A   Overcast
8:35 AM 19.4 °F 8.6 °F 14.0 °F 80% 30.30 in 10.0 mi NNW 9.2 mph - N/A   Overcast
8:55 AM 19.4 °F 9.5 °F 15.8 °F 86% 30.30 in 10.0 mi North 8.1 mph - N/A   Overcast
9:15 AM 21.2 °F 11.7 °F 15.8 °F 80% 30.30 in 10.0 mi North 8.1 mph - N/A   Mostly Cloudy
9:35 AM 21.2 °F 11.7 °F 15.8 °F 80% 30.30 in 10.0 mi NNW 8.1 mph - N/A   Mostly Cloudy
9:55 AM 21.2 °F 11.7 °F 17.6 °F 86% 30.30 in 10.0 mi NNW 8.1 mph - N/A   Mostly Cloudy
10:15 AM 23.0 °F 12.4 °F 17.6 °F 80% 30.29 in 10.0 mi North 10.4 mph - N/A   Scattered Clouds
10:35 AM 23.0 °F 14.7 °F 17.6 °F 80% 30.29 in 10.0 mi NNW 6.9 mph - N/A   Mostly Cloudy
10:50 AM 23.0 °F 15.8 °F 17.6 °F 80% 30.29 in 10.0 mi North 5.8 mph - N/A   Scattered Clouds
11:20 AM 23.0 °F 13.9 °F 15.8 °F 74% 30.30 in 10.0 mi NW 8.1 mph - N/A   Scattered Clouds
11:35 AM 23.0 °F 12.4 °F 15.8 °F 74% 30.29 in 10.0 mi NNW 10.4 mph - N/A   Scattered Clouds
11:55 AM 24.8 °F 14.0 °F 17.6 °F 74% 30.29 in 10.0 mi NNW 11.5 mph - N/A   Mostly Cloudy
12:15 PM 24.8 °F 14.6 °F 17.6 °F 74% 30.29 in 10.0 mi NNW 10.4 mph - N/A   Overcast
12:40 PM 24.8 °F 15.3 °F 17.6 °F 74% 30.28 in 10.0 mi NNW 9.2 mph - N/A   Overcast
12:55 PM 24.8 °F 16.1 °F 17.6 °F 74% 30.27 in 10.0 mi NW 8.1 mph - N/A   Overcast
1:15 PM 26.6 °F 16.8 °F 17.6 °F 69% 30.26 in 10.0 mi NNW 10.4 mph - N/A   Overcast
1:35 PM 26.6 °F 16.2 °F 17.6 °F 69% 30.27 in 10.0 mi NW 11.5 mph 16.1 mph N/A   Overcast
1:55 PM 24.8 °F 12.9 °F 17.6 °F 74% 30.27 in 10.0 mi NW 13.8 mph - N/A   Mostly Cloudy
2:15 PM 24.8 °F 14.6 °F 17.6 °F 74% 30.26 in 10.0 mi NW 10.4 mph - N/A   Overcast
2:35 PM 24.8 °F 16.1 °F 17.6 °F 74% 30.26 in 10.0 mi NW 8.1 mph - N/A   Overcast
2:55 PM 24.8 °F 14.0 °F 17.6 °F 74% 30.25 in 10.0 mi WNW 11.5 mph - N/A   Overcast
3:15 PM 24.8 °F 15.3 °F 17.6 °F 74% 30.25 in 10.0 mi NW 9.2 mph 16.1 mph N/A   Overcast
3:35 PM 24.8 °F 12.9 °F 17.6 °F 74% 30.25 in 10.0 mi WNW 13.8 mph - N/A   Overcast
3:55 PM 24.8 °F 13.4 °F 17.6 °F 74% 30.25 in 10.0 mi WNW 12.7 mph - N/A   Overcast
4:15 PM 23.0 °F 10.1 °F 15.8 °F 74% 30.25 in 10.0 mi WNW 15.0 mph - N/A   Mostly Cloudy
4:35 PM 23.0 °F 10.1 °F 14.0 °F 68% 30.25 in 10.0 mi WNW 15.0 mph - N/A   Scattered Clouds
4:55 PM 23.0 °F 10.6 °F 14.0 °F 68% 30.25 in 10.0 mi WNW 13.8 mph - N/A   Mostly Cloudy
5:15 PM 21.2 °F 7.8 °F 12.2 °F 68% 30.24 in 10.0 mi NW 15.0 mph 20.7 mph N/A   Overcast
5:35 PM 21.2 °F 9.5 °F 12.2 °F 68% 30.24 in 10.0 mi NW 11.5 mph - N/A   Overcast
5:55 PM 21.2 °F 10.1 °F 12.2 °F 68% 30.25 in 10.0 mi WNW 10.4 mph - N/A   Overcast
6:15 PM 21.2 °F 10.1 °F 14.0 °F 74% 30.24 in 10.0 mi NW 10.4 mph - N/A   Overcast
6:35 PM 21.2 °F 10.1 °F 14.0 °F 74% 30.24 in 10.0 mi NW 10.4 mph - N/A   Overcast
6:55 PM 21.2 °F 8.3 °F 12.2 °F 68% 30.25 in 10.0 mi WNW 13.8 mph 20.7 mph N/A   Overcast
7:15 PM 21.2 °F 8.3 °F 12.2 °F 68% 30.25 in 10.0 mi NW 13.8 mph - N/A   Overcast
7:35 PM 21.2 °F 9.5 °F 12.2 °F 68% 30.25 in 10.0 mi WNW 11.5 mph 18.4 mph N/A   Overcast
7:55 PM 19.4 °F 5.0 °F 5.0 °F 54% 30.25 in 10.0 mi NW 16.1 mph 21.9 mph N/A   Overcast
8:15 PM 19.4 °F 5.5 °F 6.8 °F 58% 30.25 in 10.0 mi NNW 15.0 mph - N/A   Scattered Clouds
8:35 PM 19.4 °F 4.5 °F 6.8 °F 58% 30.26 in 10.0 mi NNW 17.3 mph - N/A   Mostly Cloudy
8:55 PM 17.6 °F 3.7 °F 8.6 °F 68% 30.27 in 10.0 mi NNW 13.8 mph - N/A   Mostly Cloudy
9:15 PM 17.6 °F 1.7 °F 8.6 °F 68% 30.28 in 10.0 mi NW 18.4 mph 23.0 mph N/A   Mostly Cloudy
9:35 PM 17.6 °F 3.2 °F 8.6 °F 68% 30.28 in 10.0 mi NW 15.0 mph 19.6 mph N/A   Scattered Clouds
9:55 PM 17.6 °F 2.2 °F 6.8 °F 63% 30.29 in 10.0 mi NW 17.3 mph 21.9 mph N/A   Mostly Cloudy
10:15 PM 15.8 °F 0.9 °F 3.2 °F 58% 30.29 in 10.0 mi NW 15.0 mph 20.7 mph N/A   Overcast
10:35 PM 14.0 °F -1.4 °F 3.2 °F 62% 30.29 in 10.0 mi NW 15.0 mph 18.4 mph N/A   Mostly Cloudy
10:55 PM 14.0 °F -1.4 °F 3.2 °F 62% 30.30 in 10.0 mi NW 15.0 mph 25.3 mph N/A   Scattered Clouds
11:15 PM 14.0 °F -2.5 °F 3.2 °F 62% 30.30 in 10.0 mi NW 17.3 mph 24.2 mph N/A   Clear
11:35 PM 14.0 °F -1.4 °F 5.0 °F 67% 30.30 in 10.0 mi NW 15.0 mph - N/A   Mostly Cloudy
11:55 PM 14.0 °F -3.0 °F 3.2 °F 62% 30.31 in 10.0 mi NW 18.4 mph 25.3 mph N/A   Mostly Cloudy